Pagina principale
METAR-TAF:

METAR-TAF

Aeroporti :

Gobabis, Namibia

latitudine: 22-30-20S, longitudine: 18-58-30E, altezza: 1468 m

Osservazione

Il bollettino è stato emesso 1 ora e 10 minuti fa, alle 08:00 UTC
Vento 3 kt da sud/sud-ovest
Temperature 22°C
Umidità 65%
Pressione 1027 hPa

METAR: FYGB 010800Z AUTO 21003KT //// // ////// 22/15 Q1027

Ora: 11:10 (09:10 UTC)


TAF: mancante

Osservazioni e previsioni meteorologiche di più di 4000 aeroporti (messaggi METAR e TAF).

Le stazioni disponibili sono rappresentate dai dischi gialli e rossi sulla carta.

Puntare il mouse per vedere il nome della stazione.

Clicca sopra per visualizzare le osservazioni e previsioni meteorologiche.

Per cambiare la mappa : fare clic sui pulsanti verdi con una croce nera per ingrandire, il pulsante verde con un trattino per diminuire, o sulla freccia verde per le mappe adiacenti.


METAR-TAF: